Location: Unspecified
(0.0000°N, 0.0000°E)
Time: 00:07:28
(UTC+00:00)

STARLINK-1273 - Pass Details

Date: 23 February 2026
Orbit: 434 x 436 km, 53.1° (Epoch: 7 March)

Event Time Altitude Azimuth Distance (km) Brightness Sun altitude
Exits shadow 05:21:02 21° 296° (WNW) 1,019 4.4 -12.9°
Maximum altitude 05:21:21 22° 304° (NW) 1,010 4.4 -12.8°
Drops below altitude 10° 05:24:03 10° 356° (N) 1,530 5.8 -12.1°
Sets 05:26:29 0° 13° (NNE) 2,396 6.9 -11.5°
